Preview of NWS' New Version of Forecast
This preview is not operational and should not be used for support decisions.

Regional Weather Roundup (RWR)

Issued by National Weather Service (NWS)

                            
000
ASUS43 KLSX 260557
RWRMO 

WEATHER SUMMARY FOR MISSOURI
NATIONAL WEATHER SERVICE SPRINGFIELD MO
100 AM CDT SUN MAY 26 2019

NOTE: "FAIR" INDICATES FEW OR NO CLOUDS BELOW 12,000 FEET WITH NO
       SIGNIFICANT WEATHER AND/OR OBSTRUCTIONS TO VISIBILITY.
       CURRENT SKY AND/OR WEATHER CONDITIONS ARE NOT AVAILABLE FOR
       CHILLICOTHE AND FARMINGTON.

MOZ001>031-035>038-043-044-053-054-260700-
...NORTHERN AND WESTERN MISSOURI...
  
CITY           SKY/WX    TMP DP  RH WIND       PRES   REMARKS
KANSAS CTY INT DRIZZLE   66  66 100 NW3       30.01S                  
6HR MIN TEMP:  66; 6HR MAX TEMP:  78; 6HR PCP:  1.31;                

LEE'S SUMMIT   LGT RAIN  67  63  87 NW12G25   30.03R                  
6HR MIN TEMP:  67; 6HR MAX TEMP:  79; 6HR PCP:  0.02;                

ST JOSEPH      LGT RAIN  67  62  84 NW22G30   29.96F                  
6HR MIN TEMP:  66; 6HR MAX TEMP:  74; 6HR PCP:  0.13;                

CHILLICOTHE      N/A     68  65  90 CALM      29.98R                  
6HR MIN TEMP:  66; 6HR MAX TEMP:  79; 6HR PCP:  0.12;                

KIRKSVILLE     TSTM      66  64  94 SE8       30.00S                  
     
$$
MOZ066>068-077>081-088>096-101>105-260700-
...SOUTHWEST MISSOURI...
  
CITY           SKY/WX    TMP DP  RH WIND       PRES   REMARKS
SPRINGFIELD    CLOUDY    71  65  81 S6        30.05F                  
6HR MIN TEMP:  71; 6HR MAX TEMP:  83;                                

JOPLIN         CLOUDY    73  67  81 S8        30.04R                  
6HR MIN TEMP:  73; 6HR MAX TEMP:  80;                                

               
$$
MOZ032>034-039>042-045>050-055>058-069>072-260700-
...CENTRAL MISSOURI...  
  
CITY           SKY/WX    TMP DP  RH WIND       PRES   REMARKS
COLUMBIA       NOT AVBL                                               
ROLLA          CLOUDY    72  66  81 SW8       30.06R                  
6HR MIN TEMP:  72; 6HR MAX TEMP:  83;                                

SEDALIA        CLOUDY    70  67  90 SW8       30.01F                  
6HR MIN TEMP:  70; 6HR MAX TEMP:  78;                                

WARRENSBURG    CLOUDY    73  66  78 S10G16    30.00R                  
               
$$
MOZ051-052-059>065-260700-
...EAST CENTRAL MISSOURI...
  
CITY           SKY/WX    TMP DP  RH WIND       PRES   REMARKS
ST LOUIS INTL  MOCLDY    79  68  69 SW13      30.03R                  
6HR MIN TEMP:  79; 6HR MAX TEMP:  88;                                

                   
$$
MOZ072>076-082>087-097>100-106>115-260700-
...SOUTH CENTRAL AND SOUTHEAST MISSOURI...
  
CITY           SKY/WX    TMP DP  RH WIND       PRES   REMARKS
CAPE GIRARDEAU FAIR      76  65  68 S6        30.03R                  
6HR MIN TEMP:  73; 6HR MAX TEMP:  85;                                

POPLAR BLUFF   FAIR      72  69  90 SW3       30.03F                  
6HR MIN TEMP:  72; 6HR MAX TEMP:  84;                                

                                       
$$